TimeCST,TemperatureF,Dew PointF,Humidity,Sea Level PressureIn,VisibilityMPH,Wind Direction,Wind SpeedMPH,Gust SpeedMPH,PrecipitationIn,Events,Conditions,WindDirDegrees,DateUTC
12:55 AM,53.6,53.6,100,30.28,8.0,ENE,6.9,-,N/A,Rain,Light Rain,70,2013-01-10 06:55:00
2:15 AM,53.6,53.6,100,30.26,10.0,East,9.2,-,N/A,,Overcast,80,2013-01-10 08:15:00
2:35 AM,53.6,53.6,100,30.25,10.0,East,8.1,-,N/A,,Overcast,80,2013-01-10 08:35:00
2:55 AM,53.6,53.6,100,30.25,10.0,Variable,5.8,-,N/A,,Overcast,0,2013-01-10 08:55:00
3:15 AM,53.6,53.6,100,30.24,8.0,East,5.8,-,N/A,,Overcast,80,2013-01-10 09:15:00
3:35 AM,53.6,53.6,100,30.22,10.0,East,6.9,-,N/A,,Overcast,80,2013-01-10 09:35:00
3:55 AM,53.6,53.6,100,30.20,9.0,East,9.2,-,N/A,,Overcast,80,2013-01-10 09:55:00
4:15 AM,55.4,55.4,100,30.19,6.0,East,9.2,-,N/A,,Overcast,80,2013-01-10 10:15:00
4:35 AM,55.4,55.4,100,30.18,4.0,East,6.9,-,N/A,,Overcast,80,2013-01-10 10:35:00
4:55 AM,55.4,55.4,100,30.18,4.0,East,5.8,-,N/A,,Overcast,80,2013-01-10 10:55:00
5:55 AM,55.4,55.4,100,30.15,7.0,East,6.9,-,N/A,Rain,Light Rain,90,2013-01-10 11:55:00
6:55 AM,59.0,59.0,100,30.18,7.0,ESE,4.6,-,N/A,Rain,Light Rain,120,2013-01-10 12:55:00
7:55 AM,59.0,59.0,100,30.17,4.0,East,8.1,-,N/A,Rain,Light Rain,100,2013-01-10 13:55:00
8:55 AM,60.8,60.8,100,30.16,7.0,SE,12.7,-,N/A,,Mostly Cloudy,130,2013-01-10 14:55:00
9:55 AM,62.6,62.6,100,30.17,5.0,SE,13.8,-,N/A,Rain,Light Rain,130,2013-01-10 15:55:00
10:55 AM,62.6,62.6,100,30.15,10.0,SE,10.4,-,N/A,,Overcast,130,2013-01-10 16:55:00
11:55 AM,62.6,62.6,100,30.12,2.0,SE,9.2,-,N/A,Rain,Light Rain,130,2013-01-10 17:55:00
12:55 PM,62.6,62.6,100,30.08,4.0,SE,9.2,-,N/A,Rain,Light Rain,130,2013-01-10 18:55:00
1:55 PM,64.4,64.4,100,30.00,10.0,ESE,11.5,-,N/A,Rain,Light Rain,110,2013-01-10 19:55:00
2:55 PM,66.2,64.4,94,29.99,10.0,SE,10.4,-,N/A,Rain,Light Rain,140,2013-01-10 20:55:00
3:55 PM,66.2,62.6,88,29.93,10.0,South,15.0,-,N/A,,Overcast,180,2013-01-10 21:55:00
4:55 PM,66.2,62.6,88,29.90,10.0,SE,13.8,-,N/A,,Overcast,140,2013-01-10 22:55:00
5:55 PM,68.0,64.4,88,29.90,10.0,SE,13.8,-,N/A,,Mostly Cloudy,140,2013-01-10 23:55:00
6:55 PM,68.0,64.4,88,29.92,10.0,SSE,15.0,-,N/A,,Overcast,150,2013-01-11 00:55:00
7:55 PM,69.8,62.6,78,29.93,10.0,SSE,13.8,-,N/A,,Overcast,160,2013-01-11 01:55:00
8:55 PM,64.4,64.4,100,29.96,5.0,South,11.5,-,N/A,Rain,Light Rain,190,2013-01-11 02:55:00
9:55 PM,64.4,62.6,94,29.95,4.0,South,10.4,-,N/A,Rain,Light Rain,190,2013-01-11 03:55:00
11:55 PM,60.8,57.2,88,29.93,8.0,SSW,9.2,-,N/A,,Overcast,200,2013-01-11 05:55:00